| time (UTC) | temp F | wind direction | speed knots | gust knots | rain 1hr in | rain 24hr in | rain mn in | humidity % | barometer mb |
| 20260507061011 | 49 | 331 | 0.9 | 4.3 | 0.00 | 0.13 | 0.00 | 89 | 1012.8 |
| 20260507060511 | 49 | 327 | 0.9 | 4.3 | 0.00 | 0.13 | 0.00 | 89 | 1012.7 |
| 20260507060014 | 49 | 329 | 0.0 | 3.5 | 0.00 | 0.13 | 0.00 | 90 | 1012.7 |
| 20260507055511 | 49 | 329 | 0.0 | 4.3 | 0.00 | 0.13 | 0.00 | 90 | 1012.6 |
| 20260507055014 | 49 | 329 | 0.9 | 4.3 | 0.00 | 0.13 | 0.00 | 90 | 1012.5 |
| 20260507054511 | 49 | 329 | 0.9 | 4.3 | 0.00 | 0.13 | 0.00 | 90 | 1012.5 |
| 20260507054014 | 49 | 329 | 0.0 | 4.3 | 0.00 | 0.13 | 0.00 | 90 | 1012.3 |
| 20260507053509 | 49 | 328 | 0.9 | 4.3 | 0.00 | 0.13 | 0.00 | 90 | 1012.3 |
| 20260507053012 | 49 | 328 | 0.9 | 4.3 | 0.00 | 0.13 | 0.00 | 91 | 1012.3 |
| 20260507052510 | 49 | 325 | 0.9 | 3.5 | 0.00 | 0.13 | 0.00 | 91 | 1012.2 |
| 20260507052007 | 49 | 325 | 0.0 | 3.5 | 0.00 | 0.13 | 0.00 | 91 | 1012.2 |
| 20260507051507 | 49 | 332 | 0.9 | 3.5 | 0.00 | 0.13 | 0.00 | 91 | 1011.9 |
| 20260507051007 | 49 | 332 | 0.0 | 3.5 | 0.00 | 0.13 | 0.00 | 91 | 1012.0 |
| 20260507050506 | 49 | 331 | 0.9 | 3.5 | 0.00 | 0.13 | 0.00 | 91 | 1011.9 |
| 20260507050006 | 49 | 336 | 0.9 | 3.5 | 0.00 | 0.13 | 0.00 | 92 | 1011.8 |
| 20260507045507 | 48 | 336 | 0.0 | 3.5 | 0.00 | 0.13 | 0.00 | 92 | 1011.8 |
| 20260507045007 | 48 | 336 | 0.9 | 5.2 | 0.00 | 0.13 | 0.00 | 92 | 1011.7 |
| 20260507044503 | 48 | 336 | 0.9 | 5.2 | 0.00 | 0.13 | 0.00 | 92 | 1011.6 |
| 20260507044002 | 48 | 335 | 0.9 | 4.3 | 0.00 | 0.13 | 0.00 | 92 | 1011.6 |
| 20260507043501 | 48 | 335 | 0.9 | 3.5 | 0.00 | 0.13 | 0.00 | 92 | 1011.6 |
| 20260507043003 | 48 | 335 | 0.9 | 3.5 | 0.00 | 0.13 | 0.00 | 92 | 1011.5 |
| 20260507042600 | 49 | 335 | 0.0 | 3.5 | 0.00 | 0.13 | 0.00 | 92 | 1011.5 |
| 20260507042103 | 49 | 335 | 0.0 | 4.3 | 0.00 | 0.13 | 0.00 | 92 | 1011.4 |
| 20260507041559 | 49 | 335 | 0.0 | 2.6 | 0.00 | 0.13 | 0.00 | 92 | 1011.2 |
| 20260507041101 | 49 | 335 | 0.0 | 2.6 | 0.00 | 0.13 | 0.00 | 92 | 1011.3 |
| 20260507040559 | 49 | 335 | 0.0 | 3.5 | 0.00 | 0.13 | 0.00 | 92 | 1011.2 |
| 20260507035557 | 49 | 335 | 0.0 | 2.6 | 0.00 | 0.13 | 0.00 | 92 | 1011.2 |
| 20260507035057 | 49 | 335 | 0.0 | 2.6 | 0.00 | 0.13 | 0.00 | 92 | 1011.2 |
| 20260507034557 | 49 | 335 | 0.0 | 3.5 | 0.00 | 0.13 | 0.00 | 92 | 1011.2 |
| 20260507034055 | 49 | 335 | 0.0 | 3.5 | 0.00 | 0.13 | 0.00 | 92 | 1011.1 |
| 20260507033555 | 49 | 335 | 0.0 | 3.5 | 0.00 | 0.13 | 0.00 | 92 | 1011.1 |
| 20260507033055 | 49 | 336 | 0.9 | 3.5 | 0.00 | 0.13 | 0.00 | 92 | 1011.1 |
| 20260507032554 | 49 | 334 | 0.0 | 3.5 | 0.00 | 0.13 | 0.00 | 92 | 1011.1 |
| 20260507032053 | 49 | 334 | 0.0 | 3.5 | 0.00 | 0.13 | 0.00 | 92 | 1011.1 |
| 20260507031555 | 49 | 334 | 0.9 | 3.5 | 0.00 | 0.13 | 0.00 | 92 | 1011.1 |
| 20260507031052 | 49 | 334 | 0.9 | 2.6 | 0.00 | 0.13 | 0.00 | 92 | 1011.0 |
| 20260507030551 | 49 | 334 | 0.0 | 3.5 | 0.00 | 0.13 | 0.00 | 92 | 1011.0 |
| 20260507030051 | 49 | 334 | 0.9 | 3.5 | 0.00 | 0.13 | 0.00 | 92 | 1011.0 |
| 20260507025550 | 49 | 334 | 0.0 | 3.5 | 0.00 | 0.15 | 0.00 | 91 | 1010.9 |
| 20260507025052 | 49 | 334 | 0.0 | 4.3 | 0.00 | 0.15 | 0.00 | 91 | 1010.9 |
| 20260507024559 | 49 | 334 | 0.9 | 4.3 | 0.00 | 0.15 | 0.00 | 91 | 1010.8 |
| 20260507024048 | 49 | 334 | 0.0 | 4.3 | 0.00 | 0.15 | 0.00 | 91 | 1010.9 |
| 20260507023548 | 49 | 334 | 0.9 | 5.2 | 0.00 | 0.15 | 0.00 | 91 | 1010.9 |
| 20260507023047 | 49 | 338 | 1.7 | 5.2 | 0.00 | 0.15 | 0.00 | 91 | 1010.8 |
| 20260507022547 | 49 | 335 | 0.9 | 3.5 | 0.00 | 0.15 | 0.00 | 91 | 1010.9 |
| 20260507022047 | 49 | 335 | 0.9 | 3.5 | 0.00 | 0.15 | 0.00 | 91 | 1010.8 |
| 20260507021546 | 50 | 335 | 0.0 | 2.6 | 0.00 | 0.15 | 0.00 | 91 | 1010.8 |
| 20260507021046 | 50 | 335 | 0.0 | 2.6 | 0.00 | 0.15 | 0.00 | 91 | 1010.7 |
| 20260507020548 | 50 | 335 | 0.0 | 3.5 | 0.00 | 0.15 | 0.00 | 91 | 1010.8 |
| 20260507020045 | 50 | 335 | 0.0 | 3.5 | 0.00 | 0.15 | 0.00 | 91 | 1010.7 |
| 20260507015544 | 50 | 335 | 1.7 | 3.5 | 0.00 | 0.16 | 0.00 | 91 | 1010.6 |
| 20260507015044 | 50 | 334 | 0.9 | 5.2 | 0.00 | 0.16 | 0.00 | 90 | 1010.5 |
| 20260507014551 | 50 | 333 | 0.9 | 4.3 | 0.00 | 0.16 | 0.00 | 90 | 1010.5 |
| 20260507014044 | 50 | 333 | 0.9 | 3.5 | 0.00 | 0.16 | 0.00 | 90 | 1010.5 |
| 20260507013546 | 50 | 333 | 0.9 | 3.5 | 0.00 | 0.16 | 0.00 | 91 | 1010.5 |
| 20260507013045 | 50 | 333 | 0.9 | 3.5 | 0.00 | 0.16 | 0.00 | 91 | 1010.5 |
| 20260507012545 | 50 | 333 | 0.9 | 2.6 | 0.00 | 0.16 | 0.00 | 91 | 1010.4 |
| 20260507012043 | 50 | 333 | 0.9 | 3.5 | 0.00 | 0.16 | 0.00 | 91 | 1010.4 |
| 20260507011542 | 49 | 333 | 1.7 | 3.5 | 0.00 | 0.16 | 0.00 | 91 | 1010.3 |
| 20260507011042 | 50 | 333 | 1.7 | 4.3 | 0.00 | 0.16 | 0.00 | 90 | 1010.5 |
| 20260507010541 | 50 | 333 | 0.9 | 4.3 | 0.00 | 0.16 | 0.00 | 90 | 1010.4 |
| 20260507010041 | 50 | 333 | 0.0 | 3.5 | 0.00 | 0.16 | 0.00 | 90 | 1010.5 |
| 20260507005541 | 50 | 333 | 0.9 | 4.3 | 0.00 | 0.54 | 0.00 | 90 | 1010.4 |
| 20260507005040 | 50 | 333 | 0.9 | 4.3 | 0.00 | 0.54 | 0.00 | 90 | 1010.4 |
| 20260507004544 | 50 | 333 | 0.9 | 3.5 | 0.00 | 0.54 | 0.00 | 90 | 1010.5 |
| 20260507004039 | 50 | 333 | 0.9 | 3.5 | 0.00 | 0.54 | 0.00 | 89 | 1010.4 |
| 20260507003538 | 50 | 333 | 0.9 | 4.3 | 0.00 | 0.54 | 0.00 | 89 | 1010.4 |
| 20260507003038 | 50 | 332 | 0.9 | 4.3 | 0.00 | 0.54 | 0.00 | 89 | 1010.3 |
| 20260507002538 | 50 | 337 | 0.9 | 5.2 | 0.00 | 0.54 | 0.00 | 89 | 1010.2 |
| 20260507002038 | 50 | 338 | 1.7 | 5.2 | 0.00 | 0.54 | 0.00 | 89 | 1010.2 |
| 20260507001546 | 50 | 337 | 0.9 | 7.0 | 0.00 | 0.54 | 0.00 | 89 | 1010.3 |
| 20260507001037 | 50 | 337 | 1.7 | 7.0 | 0.00 | 0.54 | 0.00 | 89 | 1010.2 |
| 20260507000536 | 50 | 338 | 1.7 | 5.2 | 0.00 | 0.54 | 0.00 | 88 | 1010.1 |
| 20260507000037 | 50 | 336 | 0.9 | 4.3 | 0.00 | 0.54 | 0.00 | 88 | 1010.1 |
| 20260506235537 | 50 | 336 | 1.7 | 4.3 | 0.00 | 0.60 | 0.00 | 88 | 1010.2 |
| 20260506235035 | 51 | 337 | 0.9 | 3.5 | 0.00 | 0.60 | 0.00 | 88 | 1010.2 |
| 20260506234535 | 51 | 337 | 0.0 | 2.6 | 0.00 | 0.60 | 0.00 | 88 | 1010.2 |
| 20260506234038 | 51 | 337 | 0.0 | 4.3 | 0.00 | 0.60 | 0.00 | 88 | 1010.1 |
| 20260506233535 | 51 | 337 | 1.7 | 5.2 | 0.00 | 0.60 | 0.00 | 88 | 1010.0 |
| 20260506233034 | 51 | 337 | 1.7 | 7.0 | 0.00 | 0.60 | 0.00 | 88 | 1010.0 |
| 20260506232535 | 51 | 329 | 0.9 | 7.0 | 0.00 | 0.60 | 0.00 | 88 | 1010.1 |
| 20260506232032 | 51 | 340 | 1.7 | 5.2 | 0.00 | 0.60 | 0.00 | 88 | 1009.9 |
| 20260506231531 | 51 | 340 | 1.7 | 3.5 | 0.00 | 0.60 | 0.00 | 89 | 1009.8 |
| 20260506231031 | 51 | 340 | 1.7 | 4.3 | 0.00 | 0.60 | 0.00 | 89 | 1009.8 |
| 20260506230531 | 51 | 340 | 1.7 | 5.2 | 0.00 | 0.60 | 0.00 | 89 | 1009.8 |
| 20260506230030 | 51 | 340 | 1.7 | 5.2 | 0.00 | 0.60 | 0.00 | 89 | 1009.8 |
| 20260506225530 | 51 | 340 | 1.7 | 4.3 | 0.00 | 0.60 | 0.00 | 89 | 1009.8 |
| 20260506225029 | 51 | 340 | 1.7 | 5.2 | 0.00 | 0.60 | 0.00 | 89 | 1009.9 |
| 20260506224530 | 51 | 339 | 0.9 | 5.2 | 0.00 | 0.60 | 0.00 | 89 | 1009.8 |
| 20260506224029 | 51 | 347 | 0.9 | 4.3 | 0.00 | 0.60 | 0.00 | 89 | 1009.7 |
| 20260506223528 | 51 | 347 | 1.7 | 4.3 | 0.00 | 0.60 | 0.00 | 89 | 1009.7 |
| 20260506223028 | 51 | 347 | 0.9 | 4.3 | 0.00 | 0.60 | 0.00 | 89 | 1009.8 |
| 20260506222531 | 51 | 347 | 1.7 | 5.2 | 0.00 | 0.60 | 0.00 | 89 | 1009.7 |
| 20260506222028 | 51 | 341 | 2.6 | 5.2 | 0.00 | 0.60 | 0.00 | 89 | 1009.6 |
| 20260506221526 | 51 | 340 | 1.7 | 5.2 | 0.00 | 0.60 | 0.00 | 89 | 1009.6 |
| 20260506221026 | 51 | 342 | 1.7 | 7.0 | 0.00 | 0.60 | 0.00 | 89 | 1009.6 |
| 20260506220525 | 51 | 333 | 1.7 | 4.3 | 0.00 | 0.60 | 0.00 | 89 | 1009.3 |
| 20260506220034 | 51 | 329 | 0.9 | 4.3 | 0.00 | 0.60 | 0.00 | 89 | 1009.4 |
| 20260506215523 | 52 | 329 | 0.9 | 4.3 | 0.00 | 0.60 | 0.60 | 89 | 1009.3 |
| 20260506215024 | 52 | 329 | 0.9 | 3.5 | 0.00 | 0.60 | 0.60 | 89 | 1009.2 |
| 20260506214526 | 52 | 329 | 1.7 | 4.3 | 0.00 | 0.60 | 0.60 | 89 | 1009.3 |
| 20260506214023 | 52 | 328 | 1.7 | 4.3 | 0.00 | 0.60 | 0.60 | 88 | 1009.3 |
| 20260506213522 | 52 | 355 | 1.7 | 5.2 | 0.00 | 0.60 | 0.60 | 88 | 1009.3 |
| 20260506213025 | 52 | 355 | 3.5 | 5.2 | 0.00 | 0.60 | 0.60 | 89 | 1009.3 |
| 20260506212520 | 52 | 340 | 0.9 | 5.2 | 0.00 | 0.60 | 0.60 | 89 | 1009.2 |
| 20260506212020 | 52 | 340 | 2.6 | 7.0 | 0.00 | 0.60 | 0.60 | 89 | 1009.1 |
| 20260506211520 | 52 | 342 | 2.6 | 7.8 | 0.00 | 0.60 | 0.60 | 89 | 1009.0 |
| 20260506211020 | 52 | 337 | 1.7 | 7.8 | 0.00 | 0.60 | 0.60 | 89 | 1009.0 |
| 20260506210518 | 52 | 333 | 2.6 | 5.2 | 0.00 | 0.60 | 0.60 | 89 | 1008.9 |
| 20260506210019 | 52 | 338 | 2.6 | 5.2 | 0.00 | 0.60 | 0.60 | 90 | 1008.9 |
| 20260506205517 | 52 | 344 | 1.7 | 5.2 | 0.00 | 0.61 | 0.60 | 90 | 1008.9 |
| 20260506205017 | 52 | 346 | 1.7 | 5.2 | 0.00 | 0.61 | 0.60 | 90 | 1008.8 |
| 20260506204517 | 52 | 346 | 0.9 | 4.3 | 0.00 | 0.61 | 0.60 | 90 | 1008.8 |
| 20260506204017 | 53 | 346 | 1.7 | 4.3 | 0.00 | 0.61 | 0.60 | 90 | 1008.8 |
| 20260506203516 | 53 | 343 | 1.7 | 4.3 | 0.00 | 0.61 | 0.60 | 90 | 1008.9 |
| 20260506203020 | 53 | 344 | 1.7 | 4.3 | 0.00 | 0.61 | 0.60 | 90 | 1008.8 |
| 20260506202514 | 53 | 343 | 2.6 | 7.0 | 0.00 | 0.61 | 0.60 | 90 | 1008.7 |
| 20260506202017 | 53 | 344 | 2.6 | 7.0 | 0.00 | 0.61 | 0.60 | 90 | 1008.6 |
| 20260506201512 | 53 | 338 | 1.7 | 3.5 | 0.00 | 0.61 | 0.60 | 90 | 1008.6 |
| 20260506201012 | 53 | 337 | 0.9 | 3.5 | 0.00 | 0.61 | 0.60 | 90 | 1008.5 |
| 20260506200511 | 53 | 337 | 1.7 | 3.5 | 0.00 | 0.61 | 0.60 | 90 | 1008.5 |
| 20260506200015 | 53 | 336 | 1.7 | 5.2 | 0.00 | 0.61 | 0.60 | 90 | 1008.5 |
| 20260506195510 | 53 | 336 | 1.7 | 5.2 | 0.00 | 0.61 | 0.60 | 90 | 1008.4 |
| 20260506195011 | 53 | 336 | 1.7 | 7.0 | 0.00 | 0.61 | 0.60 | 90 | 1008.3 |
| 20260506194509 | 53 | 331 | 3.5 | 7.0 | 0.00 | 0.61 | 0.60 | 90 | 1008.0 |
| 20260506194008 | 54 | 342 | 1.7 | 4.3 | 0.01 | 0.61 | 0.60 | 90 | 1008.1 |
| 20260506193511 | 54 | 342 | 1.7 | 4.3 | 0.01 | 0.61 | 0.60 | 90 | 1008.1 |
| 20260506193006 | 54 | 340 | 0.9 | 4.3 | 0.01 | 0.61 | 0.60 | 90 | 1007.9 |
| 20260506192505 | 54 | 340 | 0.9 | 5.2 | 0.01 | 0.61 | 0.60 | 90 | 1007.8 |
| 20260506192005 | 54 | 340 | 2.6 | 5.2 | 0.01 | 0.61 | 0.60 | 90 | 1007.6 |
| 20260506191504 | 54 | 342 | 1.7 | 7.8 | 0.01 | 0.61 | 0.60 | 90 | 1007.5 |
| 20260506191004 | 54 | 339 | 2.6 | 7.8 | 0.01 | 0.61 | 0.60 | 90 | 1007.5 |
| 20260506190504 | 54 | 342 | 2.6 | 7.0 | 0.01 | 0.61 | 0.60 | 90 | 1007.4 |
| 20260506190005 | 54 | 338 | 1.7 | 4.3 | 0.01 | 0.61 | 0.60 | 90 | 1007.5 |
| 20260506185502 | 54 | 338 | 0.9 | 5.2 | 0.01 | 0.62 | 0.60 | 90 | 1007.4 |
| 20260506185002 | 54 | 337 | 0.9 | 5.2 | 0.01 | 0.62 | 0.60 | 90 | 1007.3 |
| 20260506184502 | 55 | 335 | 1.7 | 5.2 | 0.01 | 0.62 | 0.60 | 90 | 1007.3 |
| 20260506184004 | 55 | 333 | 0.9 | 3.5 | 0.01 | 0.61 | 0.59 | 90 | 1007.3 |
| 20260506183501 | 55 | 333 | 0.9 | 3.5 | 0.01 | 0.61 | 0.59 | 90 | 1007.2 |
| 20260506183201 | 55 | 333 | 0.9 | 3.5 | 0.01 | 0.61 | 0.59 | 90 | 1007.1 |
| 20260506182559 | 55 | 333 | 0.9 | 4.3 | 0.01 | 0.61 | 0.59 | 90 | 1007.1 |
| 20260506182059 | 55 | 333 | 0.9 | 4.3 | 0.01 | 0.61 | 0.59 | 89 | 1007.1 |
| 20260506181602 | 56 | 332 | 0.9 | 3.5 | 0.01 | 0.61 | 0.59 | 89 | 1007.0 |
| 20260506181059 | 56 | 336 | 0.0 | 2.6 | 0.01 | 0.61 | 0.59 | 90 | 1007.0 |
| 20260506180559 | 56 | 336 | 0.9 | 2.6 | 0.01 | 0.61 | 0.59 | 89 | 1006.9 |
| 20260506180116 | 56 | 344 | 0.0 | 1.7 | 0.01 | 0.61 | 0.59 | 89 | 1006.8 |
| 20260506175600 | 56 | 345 | 0.0 | 5.2 | 0.01 | 0.64 | 0.59 | 89 | 1006.9 |
| 20260506175103 | 56 | 346 | 0.9 | 5.2 | 0.01 | 0.64 | 0.59 | 89 | 1006.6 |
| 20260506174558 | 56 | 346 | 1.7 | 7.0 | 0.01 | 0.64 | 0.59 | 88 | 1006.6 |
| 20260506174059 | 57 | 347 | 1.7 | 7.0 | 0.00 | 0.63 | 0.57 | 88 | 1006.7 |
| 20260506173558 | 57 | 288 | 0.9 | 3.5 | 0.00 | 0.63 | 0.57 | 87 | 1006.6 |
| 20260506173133 | 57 | 281 | 0.9 | 3.5 | 0.00 | 0.63 | 0.57 | 86 | 1006.6 |
| 20260506172557 | 57 | 280 | 0.9 | 5.2 | 0.00 | 0.63 | 0.57 | 86 | 1006.5 |
| 20260506172057 | 58 | 258 | 1.7 | 5.2 | 0.00 | 0.63 | 0.57 | 85 | 1006.5 |
| 20260506171557 | 58 | 256 | 0.9 | 7.0 | 0.00 | 0.63 | 0.57 | 85 | 1006.5 |
| 20260506171057 | 58 | 256 | 0.9 | 7.0 | 0.00 | 0.63 | 0.57 | 85 | 1006.4 |
| 20260506170558 | 58 | 327 | 0.9 | 4.3 | 0.00 | 0.63 | 0.57 | 85 | 1006.4 |
| 20260506170057 | 59 | 339 | 0.9 | 7.0 | 0.00 | 0.63 | 0.57 | 85 | 1006.3 |
| 20260506165556 | 59 | 348 | 0.9 | 7.0 | 0.00 | 0.65 | 0.57 | 84 | 1006.2 |
| 20260506165056 | 59 | 286 | 0.9 | 5.2 | 0.00 | 0.65 | 0.57 | 85 | 1006.2 |
| 20260506164557 | 59 | 260 | 0.9 | 5.2 | 0.00 | 0.65 | 0.57 | 85 | 1006.2 |
| 20260506164055 | 59 | 328 | 0.9 | 4.3 | 0.00 | 0.65 | 0.57 | 85 | 1006.1 |
| 20260506163557 | 59 | 287 | 0.9 | 3.5 | 0.00 | 0.65 | 0.57 | 85 | 1006.1 |
| 20260506163103 | 59 | 246 | 0.0 | 2.6 | 0.00 | 0.65 | 0.57 | 86 | 1006.1 |
| 20260506162558 | 59 | 246 | 0.9 | 2.6 | 0.00 | 0.65 | 0.57 | 86 | 1006.1 |
| 20260506162055 | 59 | 258 | 0.0 | 3.5 | 0.00 | 0.65 | 0.57 | 86 | 1006.0 |
| 20260506161557 | 59 | 258 | 0.9 | 3.5 | 0.00 | 0.65 | 0.57 | 87 | 1006.1 |
| 20260506161054 | 59 | 259 | 0.0 | 0.9 | 0.00 | 0.65 | 0.57 | 87 | 1006.1 |
| 20260506160554 | 59 | 259 | 0.0 | 2.6 | 0.00 | 0.65 | 0.57 | 87 | 1006.2 |
| 20260506160054 | 59 | 259 | 0.9 | 2.6 | 0.00 | 0.65 | 0.57 | 87 | 1006.1 |
| 20260506155555 | 59 | 259 | 0.9 | 2.6 | 0.04 | 0.69 | 0.57 | 88 | 1006.0 |
| 20260506155054 | 59 | 258 | 0.0 | 2.6 | 0.10 | 0.69 | 0.57 | 88 | 1006.1 |
| 20260506154555 | 59 | 258 | 0.9 | 2.6 | 0.11 | 0.69 | 0.57 | 87 | 1006.1 |
| 20260506154054 | 59 | 258 | 0.9 | 4.3 | 0.11 | 0.69 | 0.57 | 88 | 1006.0 |
| 20260506153556 | 59 | 255 | 0.9 | 4.3 | 0.11 | 0.69 | 0.57 | 88 | 1006.0 |
| 20260506153057 | 59 | 330 | 0.9 | 3.5 | 0.11 | 0.69 | 0.57 | 89 | 1006.0 |
| 20260506152553 | 59 | 330 | 0.0 | 3.5 | 0.11 | 0.69 | 0.57 | 89 | 1006.0 |
| 20260506152053 | 58 | 330 | 0.9 | 2.6 | 0.11 | 0.69 | 0.57 | 89 | 1005.9 |
| 20260506151553 | 58 | 330 | 0.9 | 2.6 | 0.11 | 0.69 | 0.57 | 89 | 1005.9 |
| 20260506151053 | 58 | 330 | 0.0 | 3.5 | 0.11 | 0.69 | 0.57 | 89 | 1006.0 |
| 20260506150557 | 58 | 330 | 0.9 | 3.5 | 0.11 | 0.69 | 0.57 | 88 | 1005.9 |
| 20260506150057 | 58 | 330 | 0.9 | 2.6 | 0.11 | 0.69 | 0.57 | 87 | 1005.9 |
| 20260506145553 | 59 | 329 | 0.0 | 2.6 | 0.07 | 0.65 | 0.54 | 84 | 1005.9 |
| 20260506145052 | 60 | 329 | 0.9 | 5.2 | 0.01 | 0.57 | 0.48 | 81 | 1005.8 |
| 20260506144604 | 61 | 332 | 0.9 | 5.2 | 0.00 | 0.56 | 0.47 | 80 | 1005.8 |
| 20260506144052 | 62 | 330 | 0.9 | 7.8 | 0.00 | 0.56 | 0.47 | 77 | 1005.7 |
| 20260506143552 | 62 | 253 | 0.0 | 1.7 | 0.00 | 0.56 | 0.47 | 75 | 1005.6 |
| 20260506143052 | 62 | 253 | 0.0 | 1.7 | 0.00 | 0.56 | 0.47 | 73 | 1005.5 |
| 20260506142553 | 62 | 253 | 0.0 | 7.8 | 0.00 | 0.56 | 0.47 | 75 | 1005.4 |
| 20260506142051 | 63 | 253 | 0.9 | 8.7 | 0.00 | 0.56 | 0.47 | 75 | 1005.5 |
| 20260506141551 | 63 | 254 | 4.3 | 7.8 | 0.00 | 0.56 | 0.47 | 73 | 1005.4 |
| 20260506141051 | 63 | 238 | 4.3 | 8.7 | 0.00 | 0.56 | 0.47 | 72 | 1005.5 |
| 20260506140552 | 63 | 231 | 3.5 | 10.4 | 0.00 | 0.56 | 0.47 | 72 | 1005.4 |
| 20260506140051 | 63 | 244 | 6.1 | 10.4 | 0.00 | 0.56 | 0.47 | 71 | 1005.4 |
| 20260506135551 | 63 | 215 | 7.0 | 10.4 | 0.00 | 0.56 | 0.47 | 72 | 1005.4 |
| 20260506135052 | 63 | 238 | 5.2 | 8.7 | 0.00 | 0.56 | 0.47 | 70 | 1005.5 |
| 20260506134554 | 64 | 188 | 7.0 | 10.4 | 0.00 | 0.56 | 0.47 | 70 | 1005.5 |
| 20260506134050 | 64 | 195 | 5.2 | 10.4 | 0.00 | 0.56 | 0.47 | 70 | 1005.5 |
| 20260506133550 | 64 | 186 | 5.2 | 10.4 | 0.00 | 0.56 | 0.47 | 72 | 1005.5 |
| 20260506133056 | 64 | 192 | 5.2 | 9.6 | 0.00 | 0.56 | 0.47 | 70 | 1005.6 |
| 20260506132549 | 64 | 227 | 4.3 | 8.7 | 0.00 | 0.56 | 0.47 | 73 | 1005.6 |
| 20260506132051 | 64 | 225 | 5.2 | 9.6 | 0.00 | 0.56 | 0.47 | 73 | 1005.6 |
| 20260506131549 | 63 | 200 | 5.2 | 9.6 | 0.00 | 0.56 | 0.47 | 72 | 1005.7 |
| 20260506131049 | 64 | 204 | 3.5 | 8.7 | 0.00 | 0.56 | 0.47 | 74 | 1005.7 |
| 20260506130549 | 63 | 200 | 4.3 | 8.7 | 0.00 | 0.56 | 0.47 | 72 | 1005.7 |
| 20260506130051 | 64 | 190 | 6.1 | 9.6 | 0.00 | 0.56 | 0.47 | 73 | 1005.6 |
| 20260506125548 | 64 | 173 | 6.1 | 9.6 | 0.00 | 0.56 | 0.47 | 73 | 1005.7 |
| 20260506125048 | 64 | 213 | 5.2 | 11.3 | 0.00 | 0.56 | 0.47 | 73 | 1005.7 |
| 20260506124547 | 64 | 198 | 7.8 | 13.0 | 0.00 | 0.56 | 0.47 | 69 | 1005.8 |
| 20260506124047 | 64 | 248 | 7.0 | 10.4 | 0.00 | 0.56 | 0.47 | 71 | 1005.7 |
| 20260506123547 | 65 | 219 | 6.1 | 9.6 | 0.00 | 0.56 | 0.47 | 70 | 1005.7 |
| 20260506123047 | 65 | 220 | 5.2 | 8.7 | 0.00 | 0.56 | 0.47 | 70 | 1005.7 |
| 20260506122546 | 65 | 207 | 5.2 | 10.4 | 0.00 | 0.56 | 0.47 | 72 | 1005.7 |
| 20260506122045 | 64 | 209 | 6.1 | 9.6 | 0.00 | 0.56 | 0.47 | 72 | 1005.7 |
| 20260506121544 | 63 | 222 | 5.2 | 10.4 | 0.00 | 0.56 | 0.47 | 72 | 1005.8 |
| 20260506121044 | 63 | 220 | 6.1 | 10.4 | 0.00 | 0.56 | 0.47 | 74 | 1005.8 |
| 20260506120544 | 63 | 207 | 6.1 | 8.7 | 0.00 | 0.56 | 0.47 | 73 | 1005.8 |
| 20260506120044 | 62 | 223 | 5.2 | 9.6 | 0.00 | 0.56 | 0.47 | 73 | 1005.7 |
| 20260506115546 | 62 | 224 | 5.2 | 9.6 | 0.00 | 0.56 | 0.47 | 73 | 1005.8 |
| 20260506115043 | 62 | 219 | 3.5 | 8.7 | 0.00 | 0.56 | 0.47 | 74 | 1005.8 |
| 20260506114543 | 63 | 234 | 5.2 | 8.7 | 0.00 | 0.56 | 0.47 | 74 | 1005.9 |
| 20260506114043 | 63 | 198 | 4.3 | 8.7 | 0.00 | 0.56 | 0.47 | 76 | 1005.8 |
| 20260506113543 | 63 | 227 | 4.3 | 10.4 | 0.00 | 0.56 | 0.47 | 74 | 1005.9 |
| 20260506113043 | 63 | 240 | 5.2 | 10.4 | 0.00 | 0.56 | 0.47 | 74 | 1005.8 |
| 20260506112542 | 63 | 187 | 3.5 | 7.8 | 0.00 | 0.56 | 0.47 | 75 | 1005.9 |
| 20260506112043 | 63 | 220 | 5.2 | 7.8 | 0.00 | 0.56 | 0.47 | 76 | 1005.9 |
| 20260506111540 | 62 | 180 | 3.5 | 7.8 | 0.00 | 0.56 | 0.47 | 76 | 1005.9 |
| 20260506111040 | 62 | 209 | 3.5 | 8.7 | 0.00 | 0.56 | 0.47 | 76 | 1005.9 |
| 20260506110540 | 62 | 182 | 3.5 | 7.8 | 0.00 | 0.56 | 0.47 | 77 | 1005.8 |
| 20260506110042 | 62 | 207 | 3.5 | 7.0 | 0.00 | 0.56 | 0.47 | 76 | 1005.9 |
| 20260506105542 | 62 | 232 | 5.2 | 9.6 | 0.00 | 0.56 | 0.47 | 73 | 1005.9 |
| 20260506105043 | 62 | 198 | 4.3 | 9.6 | 0.00 | 0.56 | 0.47 | 73 | 1005.9 |
| 20260506104546 | 62 | 215 | 3.5 | 9.6 | 0.00 | 0.56 | 0.47 | 75 | 1005.9 |
| 20260506104040 | 62 | 218 | 6.1 | 8.7 | 0.00 | 0.56 | 0.47 | 74 | 1005.9 |
| 20260506103539 | 62 | 221 | 5.2 | 9.6 | 0.00 | 0.56 | 0.47 | 74 | 1005.9 |
| 20260506103041 | 62 | 242 | 5.2 | 9.6 | 0.00 | 0.56 | 0.47 | 75 | 1006.0 |
| 20260506102542 | 62 | 240 | 6.1 | 10.4 | 0.00 | 0.56 | 0.47 | 75 | 1006.0 |
| 20260506102038 | 62 | 258 | 6.1 | 10.4 | 0.00 | 0.56 | 0.47 | 75 | 1005.9 |
| 20260506101537 | 62 | 221 | 5.2 | 9.6 | 0.00 | 0.56 | 0.47 | 76 | 1006.0 |
| 20260506101037 | 62 | 208 | 5.2 | 10.4 | 0.00 | 0.56 | 0.47 | 78 | 1006.0 |
| 20260506100537 | 62 | 240 | 6.1 | 10.4 | 0.00 | 0.56 | 0.47 | 76 | 1005.9 |
| 20260506100037 | 62 | 243 | 5.2 | 8.7 | 0.00 | 0.56 | 0.47 | 77 | 1006.0 |
| 20260506095537 | 61 | 202 | 4.3 | 8.7 | 0.00 | 0.56 | 0.47 | 77 | 1006.0 |
| 20260506095036 | 61 | 178 | 4.3 | 9.6 | 0.00 | 0.56 | 0.47 | 76 | 1006.1 |
| 20260506094536 | 61 | 223 | 5.2 | 10.4 | 0.00 | 0.56 | 0.47 | 77 | 1006.0 |
| 20260506094036 | 61 | 173 | 7.0 | 12.2 | 0.00 | 0.56 | 0.47 | 78 | 1006.0 |
| 20260506093535 | 61 | 252 | 6.1 | 12.2 | 0.00 | 0.56 | 0.47 | 78 | 1006.1 |
| 20260506093039 | 61 | 192 | 5.2 | 13.0 | 0.00 | 0.56 | 0.47 | 79 | 1006.0 |
| 20260506092535 | 61 | 227 | 4.3 | 10.4 | 0.00 | 0.56 | 0.47 | 81 | 1006.0 |
| 20260506092035 | 61 | 235 | 4.3 | 9.6 | 0.00 | 0.56 | 0.47 | 79 | 1006.0 |
| 20260506091535 | 61 | 207 | 5.2 | 10.4 | 0.00 | 0.56 | 0.47 | 79 | 1005.9 |
| 20260506091035 | 61 | 223 | 5.2 | 10.4 | 0.00 | 0.56 | 0.47 | 81 | 1005.8 |
| 20260506090533 | 61 | 232 | 6.1 | 9.6 | 0.00 | 0.56 | 0.47 | 81 | 1005.9 |
| 20260506090034 | 60 | 205 | 6.1 | 9.6 | 0.00 | 0.56 | 0.47 | 82 | 1005.9 |
| 20260506085533 | 60 | 243 | 7.0 | 10.4 | 0.00 | 0.56 | 0.47 | 81 | 1005.9 |
| 20260506085034 | 60 | 217 | 7.0 | 10.4 | 0.00 | 0.56 | 0.47 | 82 | 1005.8 |
| 20260506084537 | 60 | 194 | 5.2 | 12.2 | 0.00 | 0.56 | 0.47 | 83 | 1005.9 |
| 20260506084036 | 60 | 244 | 7.0 | 12.2 | 0.00 | 0.56 | 0.47 | 83 | 1005.8 |
| 20260506083534 | 60 | 188 | 6.1 | 10.4 | 0.00 | 0.56 | 0.47 | 84 | 1005.7 |
| 20260506083036 | 60 | 202 | 5.2 | 12.2 | 0.00 | 0.56 | 0.47 | 83 | 1005.7 |
| 20260506082533 | 60 | 227 | 7.8 | 11.3 | 0.00 | 0.56 | 0.47 | 82 | 1005.7 |
| 20260506082032 | 61 | 221 | 6.1 | 11.3 | 0.00 | 0.56 | 0.47 | 82 | 1005.9 |
| 20260506081531 | 62 | 248 | 6.1 | 12.2 | 0.00 | 0.56 | 0.47 | 83 | 1005.9 |
| 20260506081031 | 62 | 204 | 6.1 | 8.7 | 0.00 | 0.56 | 0.47 | 84 | 1005.8 |
| 20260506080529 | 61 | 200 | 4.3 | 8.7 | 0.00 | 0.56 | 0.47 | 86 | 1005.9 |
| 20260506073524 | 58 | 236 | 6.1 | 10.4 | 0.00 | 0.56 | 0.47 | 90 | 1005.8 |
| 20260506073022 | 58 | 219 | 3.5 | 9.6 | 0.00 | 0.56 | 0.47 | 92 | 1005.8 |
| 20260506072524 | 58 | 206 | 7.0 | 9.6 | 0.00 | 0.56 | 0.47 | 92 | 1005.9 |
| 20260506072020 | 58 | 254 | 4.3 | 9.6 | 0.00 | 0.56 | 0.47 | 93 | 1005.9 |
| 20260506071520 | 57 | 219 | 5.2 | 8.7 | 0.00 | 0.56 | 0.47 | 93 | 1005.9 |
| 20260506071019 | 57 | 193 | 5.2 | 7.8 | 0.00 | 0.56 | 0.47 | 93 | 1005.9 |
| 20260506070519 | 57 | 231 | 5.2 | 9.6 | 0.00 | 0.56 | 0.47 | 94 | 1005.7 |
| 20260506062517 | 56 | 242 | 4.3 | 8.7 | 0.00 | 0.56 | 0.47 | 94 | 1005.8 |
| 20260506062017 | 57 | 193 | 4.3 | 7.0 | 0.00 | 0.56 | 0.47 | 94 | 1005.7 |
| 20260506061524 | 57 | 198 | 4.3 | 7.8 | 0.00 | 0.56 | 0.47 | 94 | 1005.7 |